Flag for U.S.A. Weather past 2 weeks in Ann Arbor, Michigan, U.S.A.

Now
27 °F

Sunny.


Feels Like: 20 °F
Forecast: 10 / 22 °F
Wind: 6 mph from East

Location: Ann Arbor Municipal Airport

Current Time: Jan 26, 2015 at 4:33:10 PM

Latest Report: Jan 26, 2015 at 3:53 PM


Visibility: 10 mi

Pressure: 29.92 "Hg

Humidity: 42%

Dew point: 7 °F

Location of Ann ArborLocation

Historic Weather in Ann Arbor — Graph

°F

Ann Arbor temperature yesterday

Maximum temperature yesterday: 35 °F (at 5:01 AM)
Minimum temperature yesterday: 19 °F (at 7:53 PM)
Average temperature yesterday: 26 °F

Past Weeks' High & Low Weather Summary

 TemperatureHumidityPressure
High41 °F (Jan 17, 10:53 PM)100% (Jan 25, 1:53 AM)30.77 "Hg (Jan 25, 1:53 AM)
Low-5 °F (Jan 13, 11:53 PM)30% (Jan 13, 2:53 PM)29.57 "Hg (Jan 24, 4:00 PM)
Average24 °F77%30.09 "Hg
* Reported Jan 11 2:53 PM — Jan 26 2:53 PM, Ann Arbor, Weather by CustomWeather, © 2014

Note: Actual official high and low records may vary slightly from our data, if they occured in-between our weather recording intervals... More about our weather records

Advertising

Ann Arbor weather history for previous 24 hours

 ConditionsComfort  
Time TempWeatherWind HumidityBarometerVisibility
2:53 PM
Jan 26
27 °FSunny.No wind42%29.92 "Hg10 mi
1:53 PM25 °FSunny.3 mph46%29.92 "Hg10 mi
12:53 PM24 °FSunny.7 mph48%29.94 "Hg10 mi
11:53 AM22 °FSunny.8 mph55%29.96 "Hg10 mi
10:53 AM19 °FSunny.7 mph62%29.98 "Hg10 mi
9:53 AM16 °FSunny.9 mph71%29.98 "Hg10 mi
8:53 AM13 °FSunny.10 mph74%29.98 "Hg10 mi
7:53 AM11 °FClear.8 mph77%29.97 "Hg10 mi
6:53 AM11 °FClear.7 mph77%29.95 "Hg10 mi
5:53 AM11 °FClear.7 mph81%29.95 "Hg10 mi
4:53 AM12 °FClear.8 mph77%29.96 "Hg10 mi
3:53 AM13 °FClear.8 mph74%29.97 "Hg10 mi
2:53 AM14 °FClear.8 mph71%29.97 "Hg10 mi
1:53 AM16 °FClear.10 mph67%29.98 "Hg10 mi
12:53 AM18 °FPassing clouds.12 mph65%30.00 "Hg10 mi
11:53 PM
Jan 25
19 °FClear.12 mph65%30.00 "Hg10 mi
10:53 PM19 °FPassing clouds.12 mph65%30.00 "Hg10 mi
9:53 PM19 °FPassing clouds.9 mph65%29.99 "Hg10 mi
8:53 PM19 °FOvercast.12 mph65%29.99 "Hg10 mi
7:53 PM19 °FOvercast.17 mph62%29.98 "Hg10 mi
6:53 PM21 °FOvercast.13 mph57%29.96 "Hg10 mi
5:53 PM22 °FOvercast.15 mph55%29.94 "Hg10 mi
4:53 PM24 °FOvercast.14 mph60%29.93 "Hg10 mi
Weather by CustomWeather, © 2014

See weather overviewHow to use our weather pages